This demonstration page uses our WeatherBlox Daily Observations layout. Learn more.

Left ArrowRight Arrow

39.08367, -84.50855

Hourly Observations for February 13, 2016

Temp ( °F °C ) Dew Point ( °F °C ) Humidity (%) Winds ( mph kmh ) Pressure ( in mb ) Visibility ( mi km ) Precip ( " mm )
12:53 am 00:53 Mostly Cloudy 19 -7.2 8 -13.3 62 62 VRB 7 11 30.37 1029 10 16 N/A
1:53 am 01:53 Mostly Clear 18 -7.8 8 -13.3 65 65 NW 12 19 30.39 1029 10 16 N/A
2:53 am 02:53 Clear 17 -8.3 4 -15.6 56 56 NW 9 15 30.41 1030 10 16 N/A
3:53 am 03:53 Clear 15 -9.4 4 -15.6 61 61 NW 9 15 30.45 1031 10 16 N/A
4:53 am 04:53 Clear 14 -10 4 -15.6 64 64 NNW 8 13 30.47 1032 10 16 N/A
5:53 am 05:53 Clear 13 -10.6 4 -15.6 67 67 NW 7 11 30.50 1033 10 16 N/A
6:53 am 06:53 Mostly Cloudy 12 -11.1 3 -16.1 67 67 NW 7 11 30.53 1034 10 16 N/A
7:00 am 07:00 Mostly Cloudy 12 -11 3 -16 67 67 NNW 8 13 30.56 1035 10 16 N/A
7:40 am 07:40 Cloudy 12 -11 3 -16 67 67 NNW 9 15 30.59 1036 10 16 N/A
7:53 am 07:53 Mostly Cloudy 12 -11.1 3 -16.1 67 67 NNW 12 19 30.56 1035 10 16 N/A
8:53 am 08:53 Mostly Sunny 13 -10.6 1 -17.2 59 59 N 8 13 30.59 1036 10 16 N/A
9:53 am 09:53 Partly Cloudy 15 -9.4 -2 -18.9 46 46 NNW 9 15 30.60 1036 10 16 N/A
10:53 am 10:53 Mostly Cloudy 15 -9.4 2 -16.7 56 56 NW 9 15 30.61 1037 10 16 N/A
11:53 am 11:53 Partly Cloudy 17 -8.3 N/A 47 47 VRB 5 7 30.61 1037 10 16 N/A
12:53 pm 12:53 Partly Cloudy 19 -7.2 1 -17.2 45 45 VRB 7 11 30.59 1036 10 16 N/A
1:53 pm 13:53 Partly Cloudy 18 -7.8 -1 -18.3 43 43 undefined N/A 30.57 1035 10 16 N/A
2:53 pm 14:53 Partly Cloudy 19 -7.2 1 -17.2 45 45 NW 8 13 30.57 1035 10 16 N/A
3:53 pm 15:53 Sunny 20 -6.7 N/A 41 41 N 10 17 30.56 1035 10 16 N/A
4:53 pm 16:53 Mostly Sunny 19 -7.2 1 -17.2 45 45 NNW 10 17 30.56 1035 10 16 N/A
5:53 pm 17:53 Sunny 17 -8.3 1 -17.2 49 49 N 12 19 30.58 1036 10 16 N/A
6:53 pm 18:53 Clear 16 -8.9 1 -17.2 51 51 N 6 9 30.58 1036 10 16 N/A
7:53 pm 19:53 Clear 15 -9.4 2 -16.7 56 56 N N/A 30.58 1036 10 16 N/A
8:53 pm 20:53 Clear 12 -11.1 5 -15 73 73 N N/A 30.58 1035 10 16 N/A
9:53 pm 21:53 Clear 13 -10.6 6 -14.4 74 74 N N/A 30.57 1035 10 16 N/A
10:53 pm 22:53 Clear 10 -12.2 6 -14.4 84 84 NE 3 6 30.55 1035 10 16 N/A
11:53 pm 23:53 Clear 11 -11.7 6 -14.4 81 81 NNE 3 6 30.55 1034 10 16 N/A

Powered by AerisWeather